User: anonymous   Login
Location: Henday
(51.9553°N, 114.0254°W)
Time: 23:02:38
(UTC+00:00)
Language:

Hubble Space Telescope - Orbit

View from above orbital plane
View from above orbital plane
View from above satellite
View from above satellite

Ground track
Ground track

The orbit data is extracted from the following two-line orbital elements,

1 20580U 90037B   21175.27260081  .00000516  00000-0  20229-4 0  9997
2 20580  28.4710  19.9585 0002791 134.4065  28.7294 15.09665657512075
Epoch (UTC): 24 June 2021 06:32:32
Eccentricity: 0.0002791
inclination: 28.4710°
perigee height: 535 km
apogee height: 539 km
right ascension of ascending node: 19.9585°
argument of perigee: 134.4065°
revolutions per day: 15.09665657
mean anomaly at epoch: 28.7294°
orbit number at epoch: 51207

The dashed part of the orbit path shows where the satellite is in the earth's shadow,  

DLR